Location: Mogi das Cruzes
(23.5170°S, 46.1830°W)
Time: 21:15:24
(UTC-03:00)

Hubble Space Telescope - Visible Passes

Search period start: 19 June 2024 00:00
Search period end: 29 June 2024 00:00
Orbit: 510 x 514 km, 28.5° (Epoch: 19 June)

Date Brightness Start Highest point End Pass type
(mag) Time Alt. Az. Time Alt. Az. Time Alt. Az.
19 Jun 0.7 19:07:00 10° WNW 19:10:45 71° NNW 19:10:45 71° NNW visible
20 Jun 0.6 18:47:54 10° WNW 18:51:55 84° NNE 18:52:49 52° E visible
21 Jun 0.6 18:28:49 10° WNW 18:32:49 86° SSW 18:34:50 28° ESE visible
22 Jun 0.7 18:09:44 10° WNW 18:13:44 77° SSW 18:16:50 16° ESE visible
22 Jun 3.4 19:50:45 10° WSW 19:51:38 16° WSW 19:51:38 16° WSW visible
23 Jun 0.8 17:50:39 10° W 17:54:39 69° SSW 17:58:39 10° ESE visible
23 Jun 2.7 19:31:41 10° WSW 19:33:37 24° SW 19:33:37 24° SW visible
24 Jun 1.8 19:12:37 10° WSW 19:15:36 35° SSW 19:15:36 35° SSW visible
25 Jun 1.3 18:53:32 10° WSW 18:57:20 39° S 18:57:36 38° SSE visible
26 Jun 1.4 18:34:27 10° WSW 18:38:14 39° S 18:39:38 29° SE visible
27 Jun 1.4 18:15:19 10° WSW 18:19:07 40° S 18:21:41 18° ESE visible
27 Jun 3.6 19:55:56 10° WSW 19:56:30 14° WSW 19:56:30 14° WSW visible
28 Jun 1.3 17:56:11 10° WSW 18:00:00 41° S 18:03:49 10° ESE visible
28 Jun 2.6 19:36:47 10° WSW 19:38:38 26° WSW 19:38:38 26° WSW visible
